TimeEDT,TemperatureF,Dew PointF,Humidity,Sea Level PressureIn,VisibilityMPH,Wind Direction,Wind SpeedMPH,Gust SpeedMPH,PrecipitationIn,Events,Conditions,WindDirDegrees,DateUTC
12:53 AM,62.1,46.0,56,30.23,10.0,North,5.8,-,N/A,,Clear,360,2011-10-05 04:53:00
1:53 AM,60.1,46.9,62,30.24,10.0,Calm,Calm,-,N/A,,Clear,0,2011-10-05 05:53:00
2:53 AM,59.0,46.0,62,30.23,10.0,Calm,Calm,-,N/A,,Clear,0,2011-10-05 06:53:00
3:53 AM,60.1,46.0,60,30.23,10.0,NNW,3.5,-,N/A,,Clear,340,2011-10-05 07:53:00
4:53 AM,55.9,46.9,72,30.24,10.0,NNE,4.6,-,N/A,,Clear,20,2011-10-05 08:53:00
5:53 AM,57.0,48.0,72,30.24,10.0,NNE,11.5,-,N/A,,Clear,30,2011-10-05 09:53:00
6:53 AM,57.0,48.9,74,30.26,10.0,NE,8.1,-,N/A,,Clear,40,2011-10-05 10:53:00
7:53 AM,57.0,48.9,74,30.27,10.0,ENE,5.8,-,N/A,,Clear,60,2011-10-05 11:53:00
8:53 AM,60.1,50.0,69,30.28,10.0,ENE,6.9,-,N/A,,Clear,60,2011-10-05 12:53:00
9:53 AM,63.0,50.0,63,30.29,10.0,East,5.8,-,N/A,,Clear,100,2011-10-05 13:53:00
10:53 AM,66.9,51.1,57,30.29,10.0,ENE,5.8,-,N/A,,Clear,70,2011-10-05 14:53:00
12:53 PM,73.0,50.0,44,30.25,10.0,Calm,Calm,-,N/A,,Clear,0,2011-10-05 16:53:00
1:53 PM,77.0,48.9,37,30.23,10.0,Variable,5.8,-,N/A,,Clear,0,2011-10-05 17:53:00
2:53 PM,79.0,48.9,35,30.21,10.0,NE,6.9,-,N/A,,Clear,40,2011-10-05 18:53:00
3:53 PM,79.0,48.9,35,30.18,10.0,Variable,3.5,-,N/A,,Clear,0,2011-10-05 19:53:00
5:53 PM,78.1,48.9,36,30.17,10.0,East,3.5,-,N/A,,Clear,80,2011-10-05 21:53:00
7:53 PM,72.0,51.1,48,30.19,10.0,ESE,3.5,-,N/A,,Clear,110,2011-10-05 23:53:00
8:53 PM,70.0,52.0,53,30.21,10.0,Calm,Calm,-,N/A,,Clear,0,2011-10-06 00:53:00
9:53 PM,66.0,52.0,60,30.22,10.0,Calm,Calm,-,N/A,,Clear,0,2011-10-06 01:53:00
10:53 PM,64.0,53.1,67,30.23,10.0,Calm,Calm,-,N/A,,Clear,0,2011-10-06 02:53:00
11:53 PM,64.0,53.1,67,30.23,10.0,Calm,Calm,-,N/A,,Clear,0,2011-10-06 03:53:00